www.pogodaiklimat.ru

Погода и климат >> Архив погоды >> Россия >> Ленинградская область >> Винницы


ПОГОДА в Винницах

  • Прогноз погоды в Винницах
  • Монитор погоды в Винницах

АРХИВ ПОГОДЫ в Винницах

Время (UTC), дата Ветер
(напр.,м/с)
 
Видим.   Явления Облачность Т
(С)
Тd
(С)
f
(%)
Тe
(С)
Тes
(С)
Комфортность P
(гПа)
Po
(гПа)
Тmin
(С)
Tmax
(С)
R
(мм)
R24
(мм)
S
(см)
18 16.09 С 2 25 км слаб. ливневой дождь 10/10 450 м
[Cb cap]
+7.8 +7.2 96 +6 +6 986.6 973.4 +9.6 19
21 16.09 СЗ 2 50 км {ливн. осадки} 10/10 360 м
[Cb cap]
+6.9 +6.2 95 +5 +5 988.2 974.9
00 17.09 СЗ 2 50 км {ливн. осадки} 9/9 330 м
[Cb cap]
+6.5 +5.6 94 +4 +4 989.3 976.0
03 17.09 ЮЗ 2 21 км слаб. ливневой дождь 10/10 300 м
[Cb cap]
+6.6 +6.2 97 +4 +4 989.3 976.0 +6.1 2
06 17.09 С 1 25 км слаб. ливневой дождь 10/10 480 м
[Cb cap]
+7.7 +6.9 95 +7 +7 990.0 976.7 +6.1 2
09 17.09 штиль 0 50 км {ливн. осадки} 9/9 700 м
[Cb cap]
+9.9 +7.0 82 +9 +10 991.3 978.1
12 17.09 СЗ 2 50 км в посл. час ливневой дождь 8/5 600 м
[Cb cap Ac und]
+9.5 +6.6 82 +8 +9 992.5 979.3
15 17.09 СЗ 1 50 км в посл. час ливневой дождь 9/9 720 м
[Cb cap]
+8.4 +7.6 95 +8 +8 993.5 980.2 4
18 17.09 СЗ 1 50 км {ливн. осадки} 10/10 800 м
[Cb cap]
+7.7 +6.9 95 +7 +7 994.4 981.1 +11.1 3
21 17.09 СЗ 2 50 км в посл. час ливневой дождь 10/10 570 м
[Cb cap]
+7.2 +6.6 96 +5 +5 994.8 981.5
00 18.09 СЗ 1 25 км слаб. ливневой дождь 10/10 800 м
[Cb cap]
+7.0 +6.4 96 +6 +6 995.4 982.0
03 18.09 С 2 27 км слаб. ливневой дождь 10/10 300 м
[Cb cap]
+7.1 +6.5 96 +5 +5 996.2 982.8 +6.9 1
06 18.09 С 3 50 км {ливн. осадки} 10/10 330 м
[Cb cap]
+7.0 +5.7 91 +4 +4 997.7 984.3 +6.7 2
09 18.09 С 3 50 км 9/9 500 м
[Cb cap]
+8.6 +5.1 79 +6 +7 999.2 985.9
12 18.09 С 2 50 км 9/9 500 м
[Cb cap]
+8.8 +5.2 78 +7 +8 1000.8 987.4
15 18.09 СВ 1 50 км 9/9 540 м
[Cb cap]
+6.8 +5.2 90 +6 +6 1002.4 988.9 0.3
18 18.09 С 2 50 км {ливн. осадки} 8/3 600 м
[Cb cap Ac trans]
+4.1 +3.4 95 +1 +1 1004.1 990.5 +9.6 0.4
21 18.09 С 1 50 км 8/0
[Ac und]
+3.3 +3.0 98 +2 +2 1005.5 991.8
00 19.09 С 1 50 км 9/0
[Ac und]
+3.6 +3.0 96 +2 +2 1006.6 992.9
03 19.09 СЗ 1 50 км 9/0
[Ac und]
+1.9 +1.5 97 -0 -0 1008.1 994.3 +1.8 0.1
06 19.09 С 2 50 км 9/0
[Ac und]
+3.2 +2.2 93 0 +1 1009.9 996.1 +1.4
09 19.09 С 2 50 км 6/5 600 м
[Cu Sc Ac trans]
+6.9 +0.9 66 +5 +7 1010.7 997.1
12 19.09 В 2 50 км {ливн. осадки} [макс. диам. градин 2 мм] 8/5 600 м
[Cb cap Ac trans]
+8.2 +1.3 62 +7 +8 1011.3 997.8
15 19.09 штиль 0 50 км 3/0
[Ac trans Ci fib]
+6.9 +2.0 71 +6 +6 1011.9 998.3 0.3
18 19.09 З 1 50 км 5/0
[Ac trans Ci fib]
+0.9 +0.6 98 -1 -1 1012.7 998.8 +8.9 0.3
21 19.09 З 1 23 км туман поземный 5/0
[Ac und Ci fib]
-0.6 -0.9 98 -3 -3 1012.6 998.6
00 20.09 штиль 0 22 км туман поземный 3/0
[Ac trans Ci fib]
-2.4 -2.7 98 -4 -4 1012.5 998.4
03 20.09 штиль 0 19 км слаб. ливневой снег 9/9 600 м
[Cb cap]
-0.3 -0.4 99 -2 -2 1011.8 997.8 -2.6 0.0
06 20.09 З 1 50 км {ливн. осадки} 9/9 600 м
[Cb cap]
+2.4 +2.1 98 +1 +1 1011.1 997.3 -2.6 0.8
09 20.09 СЗ 1 50 км 8/3 600 м
[Cb cap Ac trans]
+5.4 +2.4 81 +4 +7 1012.2 998.5
12 20.09 З 2 50 км в посл. час ливневой дождь 8/5 600 м
[Cb cap Ac trans]
+7.5 +1.6 66 +6 +7 1011.9 998.3
15 20.09 З 1 50 км {ливн. осадки} 4/3 600 м
[Cb cap Ac trans]
+5.2 +2.0 80 +4 +4 1011.8 998.1 2
18 20.09 З 2 50 км {ливн. осадки} 3/0
[Ac trans]
+1.2 +0.4 94 -2 -2 1012.4 998.5 +8.5 0.7
21 20.09 ЮЗ 3 50 км 3/0
[Ac trans]
0.0 -0.3 98 -5 -5 1012.2 998.2
00 21.09 ЮЗ 2 50 км 3/0
[Ac trans]
-0.6 -0.9 98 -5 -5 1011.6 997.6
03 21.09 З 2 40 км 5/5 300 м
[St]
-0.5 -0.8 98 -4 -4 1010.9 996.9 -1.2
06 21.09 ЮЗ 2 50 км 8/5 600 м
[Sc Ac und]
+1.5 -0 0 1009.8 996.0 -1.2
09 21.09 ЮЗ 2 50 км 9/5 600 м
[Cb cap Ac und]
+7.8 +2.8 71 +6 +7 1008.5 995.0
12 21.09 ЮЗ 1 50 км в посл. час ливневой дождь 9/9 720 м
[Cb cap]
+6.9 +2.8 75 +6 +6 1007.3 993.8
15 21.09 ЮЗ 2 50 км {ливн. осадки} 9/9 700 м
[Cb cap]
+5.0 +3.1 88 +2 +2 1005.6 992.0 0.7
18 21.09 штиль 0 18 км туман поземный {ливн. осадки} 10/10 330 м
[St]
+2.7 +2.4 98 +1 +1 1004.5 990.8 +8.7 0.7
21 21.09 штиль 0 50 км в посл. час ливневой дождь 10/10 540 м
[Cb cap]
+2.8 +2.5 98 +2 +2 1003.0 989.3
00 22.09 штиль 0 50 км в посл. час ливневой дождь 10/10 720 м
[Cb cap]
+2.7 +2.3 97 +1 +1 1002.4 988.7
03 22.09 С 3 50 км 10/10 600 м
[Cb cap]
+2.0 +1.3 95 -2 -2 1002.9 989.2 +2.0 1
06 22.09 С 2 50 км в посл. час снег {ливн. осадки} 10/10 570 м
[Cb cap]
+2.2 +1.6 96 -1 -1 1004.6 990.9 +0.4 3
09 22.09 С 2 50 км {ливн. осадки} 10/10 540 м
[Cb cap]
+4.1 +3.0 93 +1 +1 1006.4 992.8
12 22.09 С 3 50 км {ливн. осадки} 9/9 600 м
[Cb cap]
+4.6 +2.6 87 +1 +1 1008.1 994.4
15 22.09 СЗ 1 50 км {ливн. осадки} 8/3 600 м
[Cb cap Ac trans]
+3.2 +2.2 93 +2 +2 1009.8 996.0 5
18 22.09 СЗ 2 50 км {ливн. осадки} 3/0
[Ac trans]
+3.3 +1.5 88 0 0 1010.5 996.7 +7.2 3
21 22.09 СЗ 3 50 км 3/0
[Ac trans]
+3.0 +0.7 85 -1 -1 1011.3 997.5
00 23.09 СЗ 2 50 км 5/0
[Ac trans]
+1.4 +0.2 92 -2 -2 1012.3 998.4
03 23.09 СЗ 3 50 км 5/0
[Ac trans]
+0.7 -0.5 92 -4 -4 1012.7 998.8 +0.7
06 23.09 СЗ 2 50 км 9/5 600 м
[Sc Ac und]
+1.9 0.0 87 -1 -1 1013.3 999.4 +0.7
09 23.09 СЗ 2 50 км 9/9 840 м
[Sc]
+4.6 +0.4 74 +2 +3 1014.1 1000.4
12 23.09 СЗ 3 50 км в посл. час ливневой дождь 9/9 450 м
[Cb cap]
+5.9 +0.2 67 +3 +3 1014.3 1000.6
15 23.09 СЗ 1 50 км в посл. час ливневой дождь 9/4 600 м
[Cb cap Ac und]
+5.0 +0.3 72 +4 +4 1014.8 1001.1 0.0

 

Местоположение метеостанции Винницы (Ленинградская область, Россия): широта 60.63 долгота 34.78 высота над уровнем моря 111 м.

В архиве по умолчанию представлена погода в Винницах за последнюю неделю. Архивные данные за месяц целиком и за предыдущие месяцы, начиная с января 2011 года, Вы можете получить, выбрав интересующий диапазон дат из раскрывающегося списка и нажав кнопку "Ввод!".


*Определитесь, кто Вы:
робот инопланетянин человек

Внимание! Время в таблицах - всемирное. Для получения местного времени необходимо прибавить поправку, которая равна 3 ч.

Смотрите также архив погоды в соседних городах и на ближайших метеорологических станциях:

Погода в Вознесенье (Ленинградская область, Россия) (58 км)
Погода в Лодейном Поле (Ленинградская область, Россия) (68 км)
Погода в Шугозере (Ленинградская область, Россия) (85 км)
Погода в Вытегре (Вологодская область, Россия) (100 км)
Погода в Олонце (Карелия, Россия) (105 км)
Погода в Ефимовской (Ленинградская область, Россия) (126 км)
Погода в Тихвине (Ленинградская область, Россия) (129 км)
Погода в Пряже (Ленинградская область, Россия) (132 км)
Погода в Маячном (Карелия, Россия) (135 км)
Погода в Петрозаводске (Карелия, Россия) (135 км)

Пояснения к столбцам:

Ветер - указаны скорость ветра в м/с - средняя за 10 мин, порывы в срок и между сроками (в фигурных скобках) и направление, откуда дует ветер: С - северный, СВ - северо-восточный, В - восточный, ЮВ - юго-восточный, Ю - южный, ЮЗ - юго-западный, З - западный, СЗ - северо-западный.
Видимость - горизонтальная дальность видимости в метрах или километрах. При видимости от 1 до 10 км при отсутствии осадков обычно наблюдается дымка, при ухудшении видимости до 1 км и менее - туман. В сухую погоду видимость может ухудшаться дымом, пылью или мглою.
Явления - указаны атмосферные явления, наблюдавшиеся в срок или в последний час перед сроком; фигурными скобками обозначены явления, наблюдавшиеся между сроками (за 1-3 часа до срока); квадратными скобками обозначены град или гололедные отложения с указанием их диаметра в мм.
Облачность - указаны через наклонную черту общая и нижняя облачность в баллах и высота нижней границы облаков в метрах; квадратными скобками обозначены формы облаков: Ci - перистые, Cs - перисто-слоистые, Cc - перисто-кучевые, Ac - высококучевые, As - высокослоистые, Sc - слоисто-кучевые, Ns - слоисто-дождевые, Cu - кучевые, Cb - кучево-дождевые. Подробнее классификацию облаков см. в Атласе облаков (PDF).
T - Температура воздуха - температура, измеренная на высоте 2 м над землей.
Td - Температура точки росы - температура, при понижении до которой содержащийся в воздухе водяной пар достигнет насыщения.
f - Относительная влажность воздуха - влажноcть воздуха, измеренная на высоте 2 м над землей.
Te - Эффективная температура - температура, которую ощущает одетый по сезону человек в тени. Характеристика душности погоды. При расчете учитывается влияние влажности воздуха и скорости ветра на теплоощущения человека.
Tes - Эффективная температура на солнце - температура, которую ощущает человек, с поправкой на солнечный нагрев. Характеристика знойности погоды. Зависит от высоты солнца над горизонтом, облачности и скорости ветра. Ночью, в пасмурную погоду, а также при ветре 12 м/с и более поправка равна нулю.
P - Атмосферное давление - приведенное к уровню моря атмосферное давление.
Po - Атмосферное давление - измеренное на уровне метеостанции атмосферное давление.
Tmin - Минимальная температура - минимум температуры воздуха на высоте 2 м над землей.
Tmax - Максимальная температура - максимум температуры воздуха на высоте 2 м над землей.
R - Количество осадков - Количество выпавших осадков за период времени, мм. При наведении курсора мыши на число - период времени, за который выпало указанное количество осадков.
R24 - Количество осадков - Количество выпавших осадков за 24 часа, мм.
S - Снежный покров - Высота снежного покрова, см. При наведении курсора мыши на число - состояние снежного покрова и степень покрытия местности в баллах.